Weather in Radionivka

Ukraine / Poltava Region     49°38′27″N   33°32′38″E
temp.,
°C
wind,
m/s
gust,
m/s
humid.,
%
clouds,
%
prec.,
mm/h
press.,
hPa
HPBL,
m
20 june, sun
sun2000:00+20ene5138531 0.0 1018374
03:00+19ene61481100 0.0 1017364
06:00+19ene61376100 0.0 1017391
09:00+22e71469100 0.0 1017586
12:00+24e81260100 0.0 1016732
15:00+25e6116442 0.0 1016944
18:00+24e7127097 0.0 1015815
21:00+20ene5138210 0.0 1015393
21 june, mon
mon2100:00+19e513830 0.0 1015300
03:00+17ene499127 0.0 1014169
06:00+18ene37884 0.0 1014156
09:00+23e4771100 0.0 1014455
12:00+26ese6757100 0.0 1013930
15:00+28ese68560 0.0 10131286
18:00+27ese58643 0.0 1013979
21:00+22e46825 0.0 101493
22 june, tue
tue2200:00+20e36835 0.0 101494
03:00+19ene468697 0.4 101396
06:00+18ene478693 0.0 1014148
09:00+23e51170100 0.3 1014399
12:00+27ese6105315 0.0 1014858
15:00+28ese695359 0.0 10141112
18:00+27e49630 0.0 10141058
21:00+23ene49820 0.0 1015150
23 june, wed
wed2300:00+20ene37841 0.0 1014120
03:00+20ene349154 0.0 101466
06:00+20ne478744 0.0 1014132
09:00+25e586697 0.0 1014438
12:00+28ese7958100 0.0 10141004
15:00+29s5957100 0.0 10141176
18:00+26ese367396 0.0 1016445
21:00+23e34846 0.0 101654
24 june, thu
thu2400:00+22ese3483100 0.0 101669
03:00+21w2283100 0.0 101713
06:00+21nnw2285100 0.0 101740
09:00+25ene467292 0.0 1016363
12:00+29ese4652100 0.0 1017765
15:00+30ese4753100 0.0 10161007
18:00+29se2263100 0.0 101650
21:00+25e4572100 0.0 101761